STARLINK-11374, 61581

Orbit data source: Space-Track

STARLINK-11374, 61581 is a payload satellite owned by SpaceX/Seattle (US) in LEO that was launched on Fri, 18 Oct 2024 UTC via an FALCON 9 launch vehicle from the Air Force Eastern Test Range (AFETR). Payload-class satellites include a variety of spacecraft equipped with specific instruments for various scientific and technological missions. These include communications satellites like Starlink; space stations such as the ISS; scientific satellites like the Hubble; Earth observation satellites from companies like Planet Labs, Umbra, and HawkEye 360; GPS; miniature CubeSats for education and research; and military/defense satellites.

Loading next visibility...
Identifier
61581, 2024-187H
Orbit
LEO
Country
Flag of USUS
Related business
Manufacturer
SpaceX/Seattle
Mission
Operational Commercial Communications
Bus & Motor
STARLINK V2MD, Unknown motor
Mass
960 kg wet, ~910 kg dry
Launch date (UTC)
2024-10-18 (2 years ago)
Launch vehicle
FALCON 9
Launch site
Air Force Eastern Test Range (AFETR)
Object type
Payload
Rocket body
Debris
Shape & HBR
Box + 2 Pan, 18.1 m
Radar Cross Section
36.964 m², Large (>1 m²)

Expand to show TLE details & history
Last TLE update: 16 hours ago

TLE from 16 hours ago
0 STARLINK-11374
1 61581U 24187H   26171.18628602 -.00000017  00000-0  47120-5 0  9991
2 61581  53.1592 151.3400 0000898  87.3443 272.7678 15.69707293 96896
Epoch: 2026-06-20T04:28Z
TLE epoch observation values (Epoch: 2026-06-20T04:28:15.112Z)
Latitude
0.00002°
Longitude
175.87253°
Altitude
360.62 km
Speed
7.694 km/s
True Right ascension
10h 05m 21s
True Declination
0° 00' 00"
Sunlit
Object was in daylight at epoch
Visualization orbit readout
Latitude
Unknown
Longitude
Unknown
Altitude
Unknown
Speed
Unknown
Apparent Right ascension
Unknown
Apparent Declination
Unknown
Sunlit
N/A
Visualization observer readout
Local Sidereal Time
07:17:37
Azimuth
Unknown
Elevation
Unknown
Doppler factor
Unknown
Orbital elements
Apogee altitude
360.6 km
Perigee altitude
359.39 km
Semi-major axis
6,738.132 km
Eccentricity
0.00009
Inclination
53.1592°
RAAN
151.34°
Arg. of periapsis
87.3443°
True anomaly
272.75752°
Mean anomaly
272.7678°
Eccentric anomaly
272.76266°
Mean motion
3.92404 °/min
Orbital period
91.74 mins
BSTAR
0.000004712
Loading maneuver chart data...
Computing Atmospheric mass density...
Loading historical data...
Loading historical data...
Loading historical data...
Loading historical data...
Loading historical data...
Loading historical data...
Loading historical data...

Documentation

Showing up to 5 results
|